Zurück zum Katalog

STARLINK-36699

AktivKommunikationSSO
NORAD 67652·PAYLOAD·🇺🇸 United States

Gestartet Feb 2, 2026 von Vandenberg Space Force Base

Loading…

Nächste Überflüge (nächste 24 Stunden)

TLE

AktuellSource: CelesTrak SupGP

Epoche: Sep 14, 2026, 22:35 UTC

1 67652C 26022E   26257.94145833  .00060985  00000+0  18947-2 0  2572
2 67652  97.2849 289.6216 0001414  88.9740  63.8275 15.33382610    11

Verfolge STARLINK-36699 in Echtzeit mit AllMySat

Download on the App Store